Location: Apollinopolis Magna
(24.9792°N, 32.8772°E)
Time: 19:51:44
(UTC+00:00)

Palapa 6 Rocket - Pass Details

Date: 02 March 2021
Orbit: 485 x 1216 km, 22.7° (Epoch: 09 April)

Event Time Altitude Azimuth Distance (km) Brightness Sun altitude
Rises 16:20:26 0° 257° (WSW) 3,668 9.2 -7.4°
Reaches altitude 10° 16:22:58 10° 255° (WSW) 2,816 8.0 -8.0°
Maximum altitude 16:30:02 71° 172° (S) 1,202 4.5 -9.6°
Enters shadow 16:37:09 14° 91° (E) 2,870 5.8 -11.2°
